Regional Weather Roundup
Issued by NWS

Home | Current Version | Previous Version | Graphics & Text | Print | Product List | Glossary On
Versions: 1 2 3 4 5 6 7 8 9 10 11 12 13 14 15 16 17 18 19 20 21 22 23 24 25 26 27
000
ASUS45 KBOI 301410
RWRID

IDAHO REGIONAL WEATHER ROUNDUP
NATIONAL WEATHER SERVICE BOISE ID
800 AM MDT TUE AUG 30 2016

NOTE: "FAIR" INDICATES FEW OR NO CLOUDS BELOW 12000 FEET
WITH NO SIGNIFICANT WEATHER AND/OR OBSTRUCTIONS TO VISIBILITY

IDZ012-014-301500-
SOUTHWEST IDAHO


CITY           SKY/WX    TMP DP  RH WIND       PRES   REMARKS
BOISE          MOCLDY    70  32  24 SE7       29.99R
CALDWELL       MOCLDY    58  52  80 CALM      29.98R
MOUNTAIN HOME  MOCLDY    63  41  45 E13       30.01R
$$

IDZ016-017-301500-
SOUTHCENTRAL IDAHO


CITY           SKY/WX    TMP DP  RH WIND       PRES   REMARKS
BURLEY         SUNNY     52  44  74 CALM      30.10S
JEROME         MOCLDY    64  34  32 NE10      30.09R
TWIN FALLS     MOCLDY    62  37  39 CALM      30.08S
$$

IDZ019>023-301500-
SOUTHEAST IDAHO


CITY           SKY/WX    TMP DP  RH WIND       PRES   REMARKS
IDAHO FALLS    CLOUDY    54  39  57 N3        30.20R
POCATELLO      SUNNY     51  37  58 CALM      30.16S
REXBURG        CLOUDY    49  35  58 E5        30.22S
$$

IDZ006-010-011-018-031-032-301500-
CENTRAL IDAHO MOUNTAINS


CITY           SKY/WX    TMP DP  RH WIND       PRES   REMARKS
MCCALL         CLOUDY    48  40  73 E3        30.15F
HAILEY         PTSUNNY   55  32  41 NW9       30.23S
STANLEY          N/A     39  26  59 CALM      30.33R
SALMON         CLOUDY    52  45  76 CALM      30.17S
CHALLIS        CLOUDY    54  32  43 CALM      30.23R
$$

IDZ002-004-006-007-026-301500-
NORTHERN IDAHO


CITY           SKY/WX    TMP DP  RH WIND       PRES   REMARKS
LEWISTON       CLOUDY    67  44  43 SE6       29.94S
LOWELL           N/A     57  49  74 CALM      30.03R
COEUR D`ALENE  PTCLDY    61  46  59 E8        29.98S
MULLAN PASS    CLOUDY    62  36  37 S7        30.22R
$$




USA.gov is the U.S. government's official web portal to all federal, state and local government web resources and services.